STARLINK-1777 (47122 NORAD) Tracking and Keplerian Element Data
This shows tracking and keplerian element data for the satellite.
Feedback or suggestion? Click here.
Element | Value |
Catalog | 47122 |
Name | STARLINK-1777 |
Epoch Orbit | 925 |
Epoch Day | 18.08334491 |
Epoch Year | 2021 |
RAAN | 88.462 |
Inclination | 53.0557 |
Eccentricity | 0.0001232 |
Argument of Perigee | 72.7674 |
Mean Anonmoly | 4.8855 |
Mean Motion | 15.44533141 |
Decay Rate | -0.01090435 |
L1 | 1 47122U 20088A 21018.08334491 -.01090435 00000-0 -25190-1 0 9990 |
L2 | 2 47122 53.0557 88.4620 0001232 72.7674 4.8855 15.44533141 9259 |
Live tracking and technical data element details for STARLINK-1777 (NORAD 47122). STARLINK-1777 can be tracked NOW for your location showing map with azimuth and elevation plus other details from your city location.
Track the satellite on the map from your city or location and see movement details for azimuth, elevation, latitude, longitude, range, height, and movement on the map or in text.
IsCatalogInMostPopularTable: catalog: 47122, numindb: 12
Update: records affected: 1
GetName: 47122 STARLINK-1777
Hit Count: updated at: Tue, 19 Jan 2021 05:10:49 GMT